{"data":{"norad_id":59585,"epoch":"2026-09-21T11:43:16.293792Z","epoch_age_seconds":82844,"freshness":"FRESH","line1":"1 59585U 24076X   26264.48838303  .00000333  00000+0  21636-4 0  9998","line2":"2 59585  43.0053 343.5643 0001474 262.9825  97.0859 15.27578312136444","mean_motion":15.27578312,"eccentricity":0.0001474,"inclination_deg":43.0053,"raan_deg":343.5643,"arg_perigee_deg":262.9825,"mean_anomaly_deg":97.0859,"bstar":2.1636e-5,"rev_number":13644,"period_min":94.266852880011,"perigee_km":482.04281094798,"apogee_km":484.06549009915,"semimajor_km":6861.1911505236,"source":"CELESTRAK","updated_at":"2026-09-22T09:00:49.006231Z"}}